Time,TemperatureF,DewpointF,PressureIn,WindDirection,WindDirectionDegrees,WindSpeedMPH,WindSpeedGustMPH,Humidity,HourlyPrecipIn,Conditions,Clouds,dailyrainin,SoftwareType,DateUTC
2013-02-28 00:01:00,50.0,1.0,-100.00,East,85,4.0,8.0,13,-99.99,,,-99.99,,2013-02-28 08:01:00,
2013-02-28 00:11:00,49.0,0.0,-100.00,SE,128,3.0,8.0,13,-99.99,,,-99.99,,2013-02-28 08:11:00,
2013-02-28 00:21:00,50.0,-1.0,-100.00,East,79,6.0,11.0,12,-99.99,,,-99.99,,2013-02-28 08:21:00,
2013-02-28 00:31:00,49.0,0.0,-100.00,East,81,3.0,9.0,13,-99.99,,,-99.99,,2013-02-28 08:31:00,
2013-02-28 00:42:00,49.0,0.0,-100.00,SSW,203,3.0,11.0,13,-99.99,,,-99.99,,2013-02-28 08:42:00,
2013-02-28 00:52:00,49.0,0.0,-100.00,ENE,58,4.0,14.0,13,-99.99,,,-99.99,,2013-02-28 08:52:00,
2013-02-28 01:02:00,51.0,-2.0,-100.00,NNE,32,6.0,17.0,11,-99.99,,,-99.99,,2013-02-28 09:02:00,
2013-02-28 01:11:00,50.0,-1.0,-100.00,WSW,257,2.0,6.0,12,-99.99,,,-99.99,,2013-02-28 09:11:00,
2013-02-28 01:21:00,50.0,-1.0,-100.00,ENE,73,2.0,5.0,12,-99.99,,,-99.99,,2013-02-28 09:21:00,
2013-02-28 01:31:00,51.0,0.0,-100.00,ESE,121,3.0,11.0,12,-99.99,,,-99.99,,2013-02-28 09:31:00,
2013-02-28 01:41:00,49.0,0.0,-100.00,South,177,2.0,5.0,13,-99.99,,,-99.99,,2013-02-28 09:41:00,
2013-02-28 01:52:00,50.0,-1.0,-100.00,NE,38,4.0,11.0,12,-99.99,,,-99.99,,2013-02-28 09:52:00,
2013-02-28 02:01:00,50.0,-1.0,-100.00,NNE,24,4.0,10.0,12,-99.99,,,-99.99,,2013-02-28 10:01:00,
2013-02-28 02:11:00,51.0,0.0,-100.00,NE,39,10.0,19.0,12,-99.99,,,-99.99,,2013-02-28 10:11:00,
2013-02-28 02:21:00,51.0,0.0,-100.00,NE,45,8.0,13.0,12,-99.99,,,-99.99,,2013-02-28 10:21:00,
2013-02-28 02:31:00,52.0,1.0,-100.00,NE,40,14.0,29.0,12,-99.99,,,-99.99,,2013-02-28 10:31:00,
2013-02-28 02:42:00,53.0,0.0,-100.00,NE,44,16.0,31.0,11,-99.99,,,-99.99,,2013-02-28 10:42:00,
2013-02-28 02:51:00,53.0,0.0,-100.00,NE,40,13.0,19.0,11,-99.99,,,-99.99,,2013-02-28 10:51:00,
2013-02-28 03:01:00,52.0,-1.0,-100.00,NNE,33,8.0,19.0,11,-99.99,,,-99.99,,2013-02-28 11:01:00,
2013-02-28 03:11:00,53.0,0.0,-100.00,NNE,23,7.0,16.0,11,-99.99,,,-99.99,,2013-02-28 11:11:00,
2013-02-28 03:21:00,52.0,-1.0,-100.00,NE,39,4.0,14.0,11,-99.99,,,-99.99,,2013-02-28 11:21:00,
2013-02-28 03:31:00,52.0,-1.0,-100.00,North,1,4.0,12.0,11,-99.99,,,-99.99,,2013-02-28 11:31:00,
2013-02-28 03:41:00,52.0,-1.0,-100.00,NE,38,3.0,8.0,11,-99.99,,,-99.99,,2013-02-28 11:41:00,
2013-02-28 03:52:00,52.0,-1.0,-100.00,NNE,21,3.0,9.0,11,-99.99,,,-99.99,,2013-02-28 11:52:00,
2013-02-28 04:01:00,52.0,-1.0,-100.00,ENE,77,4.0,11.0,11,-99.99,,,-99.99,,2013-02-28 12:01:00,
2013-02-28 04:11:00,52.0,-1.0,-100.00,ENE,75,5.0,12.0,11,-99.99,,,-99.99,,2013-02-28 12:11:00,
2013-02-28 04:21:00,52.0,-1.0,-100.00,ESE,120,4.0,7.0,11,-99.99,,,-99.99,,2013-02-28 12:21:00,
2013-02-28 04:31:00,49.0,0.0,-100.00,NW,314,3.0,7.0,13,-99.99,,,-99.99,,2013-02-28 12:31:00,
2013-02-28 04:42:00,51.0,0.0,-100.00,NNE,15,4.0,8.0,12,-99.99,,,-99.99,,2013-02-28 12:42:00,
2013-02-28 04:52:00,51.0,0.0,-100.00,NNE,25,4.0,11.0,12,-99.99,,,-99.99,,2013-02-28 12:52:00,
2013-02-28 05:01:00,51.0,0.0,-100.00,SE,125,4.0,8.0,12,-99.99,,,-99.99,,2013-02-28 13:01:00,
2013-02-28 05:11:00,51.0,0.0,-100.00,SE,125,4.0,8.0,12,-99.99,,,-99.99,,2013-02-28 13:11:00,
2013-02-28 05:21:00,51.0,0.0,-100.00,SE,125,4.0,8.0,12,-99.99,,,-99.99,,2013-02-28 13:21:00,
2013-02-28 05:31:00,51.0,0.0,-100.00,NNE,28,5.0,11.0,12,-99.99,,,-99.99,,2013-02-28 13:31:00,
2013-02-28 05:42:00,51.0,0.0,-100.00,NE,34,9.0,16.0,12,-99.99,,,-99.99,,2013-02-28 13:42:00,
2013-02-28 05:52:00,50.0,-1.0,-100.00,NNE,30,12.0,20.0,12,-99.99,,,-99.99,,2013-02-28 13:52:00,
2013-02-28 06:01:00,50.0,1.0,-100.00,NNE,29,12.0,19.0,13,-99.99,,,-99.99,,2013-02-28 14:01:00,
2013-02-28 06:11:00,50.0,1.0,-100.00,NNE,30,13.0,20.0,13,-99.99,,,-99.99,,2013-02-28 14:11:00,
2013-02-28 06:21:00,50.0,1.0,-100.00,NE,37,9.0,14.0,13,-99.99,,,-99.99,,2013-02-28 14:21:00,
2013-02-28 06:31:00,50.0,1.0,-100.00,NNE,29,10.0,15.0,13,-99.99,,,-99.99,,2013-02-28 14:31:00,
2013-02-28 06:42:00,49.0,0.0,-100.00,NNE,30,10.0,16.0,13,-99.99,,,-99.99,,2013-02-28 14:42:00,
2013-02-28 06:52:00,49.0,2.0,-100.00,NNE,33,11.0,16.0,14,-99.99,,,-99.99,,2013-02-28 14:52:00,
2013-02-28 07:01:00,49.0,2.0,-100.00,NE,44,12.0,20.0,14,-99.99,,,-99.99,,2013-02-28 15:01:00,
2013-02-28 07:11:00,49.0,2.0,-100.00,NE,46,10.0,16.0,14,-99.99,,,-99.99,,2013-02-28 15:11:00,
2013-02-28 07:21:00,49.0,2.0,-100.00,NE,43,11.0,16.0,14,-99.99,,,-99.99,,2013-02-28 15:21:00,
2013-02-28 07:31:00,52.0,3.0,-100.00,NE,42,12.0,18.0,13,-99.99,,,-99.99,,2013-02-28 15:31:00,
2013-02-28 07:41:00,52.0,3.0,-100.00,NE,42,12.0,18.0,13,-99.99,,,-99.99,,2013-02-28 15:41:00,
2013-02-28 07:52:00,53.0,2.0,-100.00,NE,43,15.0,23.0,12,-99.99,,,-99.99,,2013-02-28 15:52:00,
2013-02-28 08:01:00,53.0,2.0,-100.00,NE,44,17.0,25.0,12,-99.99,,,-99.99,,2013-02-28 16:01:00,
2013-02-28 08:11:00,54.0,3.0,-100.00,NE,43,18.0,26.0,12,-99.99,,,-99.99,,2013-02-28 16:11:00,
2013-02-28 08:21:00,55.0,3.0,-100.00,NE,47,17.0,29.0,12,-99.99,,,-99.99,,2013-02-28 16:21:00,
2013-02-28 08:31:00,55.0,3.0,-100.00,NE,47,17.0,29.0,12,-99.99,,,-99.99,,2013-02-28 16:31:00,
2013-02-28 08:42:00,56.0,2.0,-100.00,NE,40,14.0,21.0,11,-99.99,,,-99.99,,2013-02-28 16:42:00,
2013-02-28 08:52:00,56.0,2.0,-100.00,NE,38,16.0,24.0,11,-99.99,,,-99.99,,2013-02-28 16:52:00,
2013-02-28 09:01:00,57.0,3.0,-100.00,NE,36,12.0,20.0,11,-99.99,,,-99.99,,2013-02-28 17:01:00,
2013-02-28 09:11:00,57.0,3.0,-100.00,NNE,27,14.0,31.0,11,-99.99,,,-99.99,,2013-02-28 17:11:00,
2013-02-28 09:21:00,57.0,1.0,-100.00,NNE,31,14.0,27.0,10,-99.99,,,-99.99,,2013-02-28 17:21:00,
2013-02-28 09:32:00,58.0,4.0,-100.00,NNE,32,12.0,21.0,11,-99.99,,,-99.99,,2013-02-28 17:32:00,
2013-02-28 09:41:00,58.0,4.0,-100.00,NNE,32,12.0,21.0,11,-99.99,,,-99.99,,2013-02-28 17:41:00,
2013-02-28 09:52:00,58.0,4.0,-100.00,NE,39,15.0,24.0,11,-99.99,,,-99.99,,2013-02-28 17:52:00,
2013-02-28 10:01:00,58.0,4.0,-100.00,NE,39,15.0,24.0,11,-99.99,,,-99.99,,2013-02-28 18:01:00,
2013-02-28 10:11:00,58.0,2.0,-100.00,NE,42,17.0,31.0,10,-99.99,,,-99.99,,2013-02-28 18:11:00,
2013-02-28 10:21:00,58.0,2.0,-100.00,NE,46,17.0,29.0,10,-99.99,,,-99.99,,2013-02-28 18:21:00,
2013-02-28 10:31:00,59.0,5.0,-100.00,NE,44,12.0,27.0,11,-99.99,,,-99.99,,2013-02-28 18:31:00,
2013-02-28 10:42:00,59.0,3.0,-100.00,NE,37,14.0,32.0,10,-99.99,,,-99.99,,2013-02-28 18:42:00,
2013-02-28 10:52:00,59.0,3.0,-100.00,NNE,29,18.0,29.0,10,-99.99,,,-99.99,,2013-02-28 18:52:00,
2013-02-28 11:01:00,59.0,3.0,-100.00,NE,37,16.0,32.0,10,-99.99,,,-99.99,,2013-02-28 19:01:00,
2013-02-28 11:11:00,60.0,3.0,-100.00,NE,49,12.0,28.0,10,-99.99,,,-99.99,,2013-02-28 19:11:00,
2013-02-28 11:21:00,60.0,3.0,-100.00,NE,41,17.0,29.0,10,-99.99,,,-99.99,,2013-02-28 19:21:00,
2013-02-28 11:31:00,60.0,3.0,-100.00,NE,44,19.0,30.0,10,-99.99,,,-99.99,,2013-02-28 19:31:00,
2013-02-28 11:41:00,60.0,3.0,-100.00,NE,42,16.0,30.0,10,-99.99,,,-99.99,,2013-02-28 19:41:00,
2013-02-28 11:51:00,61.0,4.0,-100.00,NE,48,14.0,28.0,10,-99.99,,,-99.99,,2013-02-28 19:51:00,
2013-02-28 12:01:00,60.0,3.0,-100.00,NE,56,18.0,30.0,10,-99.99,,,-99.99,,2013-02-28 20:01:00,
2013-02-28 12:11:00,61.0,4.0,-100.00,NE,49,16.0,31.0,10,-99.99,,,-99.99,,2013-02-28 20:11:00,
2013-02-28 12:21:00,61.0,4.0,-100.00,NE,50,16.0,28.0,10,-99.99,,,-99.99,,2013-02-28 20:21:00,
2013-02-28 12:31:00,60.0,3.0,-100.00,ENE,65,17.0,29.0,10,-99.99,,,-99.99,,2013-02-28 20:31:00,
2013-02-28 12:41:00,60.0,3.0,-100.00,ENE,59,18.0,31.0,10,-99.99,,,-99.99,,2013-02-28 20:41:00,
2013-02-28 12:52:00,61.0,4.0,-100.00,ENE,59,16.0,23.0,10,-99.99,,,-99.99,,2013-02-28 20:52:00,
2013-02-28 13:01:00,61.0,4.0,-100.00,NE,49,17.0,27.0,10,-99.99,,,-99.99,,2013-02-28 21:01:00,
2013-02-28 13:11:00,62.0,5.0,-100.00,NE,46,16.0,24.0,10,-99.99,,,-99.99,,2013-02-28 21:11:00,
2013-02-28 13:22:00,62.0,5.0,-100.00,NE,44,17.0,26.0,10,-99.99,,,-99.99,,2013-02-28 21:22:00,
2013-02-28 13:31:00,62.0,5.0,-100.00,NE,51,17.0,23.0,10,-99.99,,,-99.99,,2013-02-28 21:31:00,
2013-02-28 13:41:00,62.0,5.0,-100.00,ENE,62,16.0,23.0,10,-99.99,,,-99.99,,2013-02-28 21:41:00,
2013-02-28 13:51:00,62.0,5.0,-100.00,ENE,59,16.0,24.0,10,-99.99,,,-99.99,,2013-02-28 21:51:00,
2013-02-28 14:01:00,62.0,5.0,-100.00,ENE,61,16.0,25.0,10,-99.99,,,-99.99,,2013-02-28 22:01:00,
2013-02-28 14:11:00,63.0,6.0,-100.00,NE,48,13.0,21.0,10,-99.99,,,-99.99,,2013-02-28 22:11:00,
2013-02-28 14:21:00,63.0,6.0,-100.00,NE,39,14.0,23.0,10,-99.99,,,-99.99,,2013-02-28 22:21:00,
2013-02-28 14:31:00,63.0,6.0,-100.00,NE,39,15.0,27.0,10,-99.99,,,-99.99,,2013-02-28 22:31:00,
2013-02-28 14:41:00,62.0,5.0,-100.00,NE,42,17.0,28.0,10,-99.99,,,-99.99,,2013-02-28 22:41:00,
2013-02-28 14:52:00,62.0,5.0,-100.00,NE,42,17.0,25.0,10,-99.99,,,-99.99,,2013-02-28 22:52:00,
2013-02-28 15:01:00,63.0,6.0,-100.00,NE,37,17.0,26.0,10,-99.99,,,-99.99,,2013-02-28 23:01:00,
2013-02-28 15:11:00,63.0,6.0,-100.00,NE,47,15.0,26.0,10,-99.99,,,-99.99,,2013-02-28 23:11:00,
2013-02-28 15:21:00,63.0,6.0,-100.00,NE,44,18.0,29.0,10,-99.99,,,-99.99,,2013-02-28 23:21:00,
2013-02-28 15:31:00,62.0,5.0,-100.00,NE,39,17.0,29.0,10,-99.99,,,-99.99,,2013-02-28 23:31:00,
2013-02-28 15:41:00,62.0,5.0,-100.00,NE,49,16.0,25.0,10,-99.99,,,-99.99,,2013-02-28 23:41:00,
2013-02-28 15:52:00,62.0,5.0,-100.00,NE,52,19.0,31.0,10,-99.99,,,-99.99,,2013-02-28 23:52:00,
2013-02-28 16:01:00,62.0,5.0,-100.00,NE,49,19.0,29.0,10,-99.99,,,-99.99,,2013-03-01 00:01:00,
2013-02-28 16:11:00,62.0,5.0,-100.00,NE,46,18.0,27.0,10,-99.99,,,-99.99,,2013-03-01 00:11:00,
2013-02-28 16:22:00,61.0,4.0,-100.00,NE,54,17.0,24.0,10,-99.99,,,-99.99,,2013-03-01 00:22:00,
2013-02-28 16:32:00,61.0,4.0,-100.00,NE,55,17.0,27.0,10,-99.99,,,-99.99,,2013-03-01 00:32:00,
2013-02-28 16:41:00,61.0,4.0,-100.00,NE,55,17.0,27.0,10,-99.99,,,-99.99,,2013-03-01 00:41:00,
2013-02-28 16:51:00,61.0,4.0,-100.00,NE,45,18.0,26.0,10,-99.99,,,-99.99,,2013-03-01 00:51:00,
2013-02-28 17:01:00,61.0,4.0,-100.00,NE,46,15.0,25.0,10,-99.99,,,-99.99,,2013-03-01 01:01:00,
2013-02-28 17:11:00,61.0,4.0,-100.00,NE,48,15.0,25.0,10,-99.99,,,-99.99,,2013-03-01 01:11:00,
2013-02-28 17:21:00,61.0,6.0,-100.00,NE,41,13.0,21.0,11,-99.99,,,-99.99,,2013-03-01 01:21:00,
2013-02-28 17:31:00,60.0,5.0,-100.00,NE,46,12.0,22.0,11,-99.99,,,-99.99,,2013-03-01 01:31:00,
2013-02-28 17:42:00,60.0,5.0,-100.00,NE,46,12.0,22.0,11,-99.99,,,-99.99,,2013-03-01 01:42:00,
2013-02-28 17:51:00,59.0,5.0,-100.00,NE,44,10.0,19.0,11,-99.99,,,-99.99,,2013-03-01 01:51:00,
2013-02-28 18:01:00,59.0,5.0,-100.00,ENE,59,6.0,14.0,11,-99.99,,,-99.99,,2013-03-01 02:01:00,
2013-02-28 18:11:00,59.0,5.0,-100.00,ESE,112,2.0,5.0,11,-99.99,,,-99.99,,2013-03-01 02:11:00,
2013-02-28 18:21:00,58.0,6.0,-100.00,East,100,2.0,4.0,12,-99.99,,,-99.99,,2013-03-01 02:21:00,
2013-02-28 18:31:00,57.0,5.0,-100.00,SSW,197,1.0,3.0,12,-99.99,,,-99.99,,2013-03-01 02:31:00,
2013-02-28 18:42:00,57.0,5.0,-100.00,North,6,2.0,6.0,12,-99.99,,,-99.99,,2013-03-01 02:42:00,
2013-02-28 18:52:00,56.0,4.0,-100.00,NNE,32,2.0,5.0,12,-99.99,,,-99.99,,2013-03-01 02:52:00,
2013-02-28 19:01:00,56.0,4.0,-100.00,NNE,32,2.0,5.0,12,-99.99,,,-99.99,,2013-03-01 03:01:00,
2013-02-28 19:11:00,53.0,5.0,-100.00,SE,146,3.0,5.0,14,-99.99,,,-99.99,,2013-03-01 03:11:00,
2013-02-28 19:21:00,53.0,5.0,-100.00,SE,146,3.0,5.0,14,-99.99,,,-99.99,,2013-03-01 03:21:00,
2013-02-28 19:32:00,55.0,5.0,-100.00,SE,137,1.0,4.0,13,-99.99,,,-99.99,,2013-03-01 03:32:00,
2013-02-28 19:41:00,53.0,7.0,-100.00,SSE,147,3.0,5.0,15,-99.99,,,-99.99,,2013-03-01 03:41:00,
2013-02-28 19:51:00,53.0,7.0,-100.00,SE,140,5.0,6.0,15,-99.99,,,-99.99,,2013-03-01 03:51:00,
2013-02-28 20:01:00,52.0,7.0,-100.00,SE,136,4.0,6.0,16,-99.99,,,-99.99,,2013-03-01 04:01:00,
2013-02-28 20:11:00,50.0,7.0,-100.00,ENE,76,1.0,3.0,17,-99.99,,,-99.99,,2013-03-01 04:11:00,
2013-02-28 20:21:00,51.0,6.0,-100.00,ENE,73,1.0,5.0,16,-99.99,,,-99.99,,2013-03-01 04:21:00,
2013-02-28 20:31:00,52.0,4.0,-100.00,North,10,1.0,5.0,14,-99.99,,,-99.99,,2013-03-01 04:31:00,
2013-02-28 20:41:00,52.0,6.0,-100.00,NE,55,2.0,3.0,15,-99.99,,,-99.99,,2013-03-01 04:41:00,
2013-02-28 20:51:00,53.0,5.0,-100.00,West,277,2.0,5.0,14,-99.99,,,-99.99,,2013-03-01 04:51:00,
2013-02-28 21:01:00,54.0,6.0,-100.00,NW,312,2.0,6.0,14,-99.99,,,-99.99,,2013-03-01 05:01:00,
2013-02-28 21:11:00,53.0,5.0,-100.00,SSW,200,2.0,6.0,14,-99.99,,,-99.99,,2013-03-01 05:11:00,
2013-02-28 21:22:00,53.0,5.0,-100.00,NE,42,4.0,9.0,14,-99.99,,,-99.99,,2013-03-01 05:22:00,
2013-02-28 21:32:00,55.0,5.0,-100.00,ENE,67,4.0,13.0,13,-99.99,,,-99.99,,2013-03-01 05:32:00,
2013-02-28 21:41:00,55.0,5.0,-100.00,ENE,67,4.0,13.0,13,-99.99,,,-99.99,,2013-03-01 05:41:00,
2013-02-28 21:52:00,54.0,6.0,-100.00,East,80,6.0,10.0,14,-99.99,,,-99.99,,2013-03-01 05:52:00,
2013-02-28 22:01:00,53.0,7.0,-100.00,ENE,78,6.0,9.0,15,-99.99,,,-99.99,,2013-03-01 06:01:00,
2013-02-28 22:11:00,54.0,6.0,-100.00,ENE,59,8.0,12.0,14,-99.99,,,-99.99,,2013-03-01 06:11:00,
2013-02-28 22:31:00,53.0,7.0,-100.00,ENE,57,10.0,13.0,15,-99.99,,,-99.99,,2013-03-01 06:31:00,
2013-02-28 22:42:00,53.0,7.0,-100.00,ENE,72,9.0,13.0,15,-99.99,,,-99.99,,2013-03-01 06:42:00,
2013-02-28 22:52:00,54.0,7.0,-100.00,East,81,6.0,12.0,15,-99.99,,,-99.99,,2013-03-01 06:52:00,
2013-02-28 23:01:00,54.0,7.0,-100.00,East,81,6.0,12.0,15,-99.99,,,-99.99,,2013-03-01 07:01:00,
2013-02-28 23:11:00,54.0,6.0,-100.00,ENE,72,6.0,9.0,14,-99.99,,,-99.99,,2013-03-01 07:11:00,
2013-02-28 23:21:00,54.0,6.0,-100.00,East,93,5.0,10.0,14,-99.99,,,-99.99,,2013-03-01 07:21:00,
2013-02-28 23:32:00,53.0,7.0,-100.00,East,94,7.0,12.0,15,-99.99,,,-99.99,,2013-03-01 07:32:00,
2013-02-28 23:42:00,54.0,6.0,-100.00,ENE,58,9.0,15.0,14,-99.99,,,-99.99,,2013-03-01 07:42:00,
2013-02-28 23:51:00,54.0,6.0,-100.00,NE,44,9.0,14.0,14,-99.99,,,-99.99,,2013-03-01 07:51:00,